Theta_e
318 319 318 318 319 319 320 320 320 320 320 318 318 318 319 320 320 321 321 321 320 317 312 307 301 298 298 299 298 298 298 298 298 297 297 297 296 296 296 295 295 295
318 319 318 319 319 319 319 319 320 320 319 318 318 319 320 320 320 320 321 321 321 319 316 311 305 300 298 298 299 298 298 298 298 297 297 297 296 296 296 295 295 295
318 318 318 318 319 319 318 318 317 318 319 318 318 319 320 321 320 320 321 321 322 321 319 315 310 304 299 298 298 299 298 298 298 297 297 297 297 296 296 296 296 295
318 317 318 318 318 319 319 318 317 317 318 319 319 319 320 320 320 320 321 321 322 322 321 318 313 308 302 299 298 298 298 298 298 298 298 297 297 297 296 296 296 295
317 317 317 318 319 319 319 319 318 318 318 319 319 319 319 320 320 320 321 321 321 322 322 320 316 312 306 301 298 298 298 298 298 298 297 297 297 297 297 296 296 296
318 317 317 319 319 319 319 319 320 321 320 320 320 319 320 320 320 321 321 321 322 322 322 322 319 315 310 305 300 298 298 298 298 298 297 297 297 296 296 296 296 296
318 317 318 319 319 319 320 320 321 321 319 320 320 320 320 320 321 321 321 321 322 322 322 322 321 317 313 308 304 300 298 298 298 297 297 297 297 297 296 296 296 296
317 316 317 318 319 320 320 320 320 319 318 320 320 320 320 321 321 321 322 322 322 322 322 322 322 320 315 311 307 302 299 298 298 297 297 297 297 297 296 296 296 296
317 317 318 318 319 319 319 319 319 318 318 319 319 320 320 321 321 322 322 322 322 323 323 322 322 321 318 314 309 305 301 298 297 297 297 297 297 297 296 296 296 296
317 318 318 319 319 319 318 318 318 318 318 319 319 320 321 321 321 322 322 322 322 322 323 322 322 322 320 316 312 307 303 299 298 297 297 297 297 296 296 296 296 296
317 318 318 317 318 318 317 317 317 318 318 319 319 320 321 321 322 322 322 322 322 322 322 323 322 322 321 318 314 310 305 301 298 297 297 297 297 296 296 296 296 296
317 317 317 316 316 316 317 317 318 318 318 319 319 320 321 321 322 322 322 322 322 322 322 323 323 323 322 320 316 312 308 304 299 298 297 297 297 296 296 296 296 296
317 317 317 316 316 316 317 318 318 318 319 320 320 320 320 321 321 322 322 322 322 322 322 323 323 323 323 322 319 314 311 306 302 298 297 297 297 296 296 296 296 296
318 318 318 318 318 318 318 318 319 319 319 320 321 320 320 321 321 321 321 322 322 322 322 323 323 323 323 323 320 316 312 309 305 300 297 297 297 296 296 296 296 296
318 319 319 319 319 319 319 318 319 319 320 320 321 321 321 321 321 321 321 321 321 322 322 322 323 323 323 323 321 318 314 311 307 303 299 297 296 296 296 296 296 296
318 319 319 320 319 319 319 319 319 319 320 320 321 321 321 321 321 321 321 322 322 322 322 322 323 323 323 323 322 320 316 312 309 305 301 298 296 296 296 296 296 296
318 319 320 320 319 319 319 320 320 320 320 320 321 321 321 321 321 321 322 322 322 322 322 322 322 322 322 323 323 321 318 314 311 307 303 300 297 296 296 296 296 295
320 321 321 321 321 321 321 321 321 321 320 320 321 321 321 321 321 322 322 322 323 323 322 323 323 322 322 322 322 322 319 315 312 309 306 302 298 297 296 295 295 295
322 322 323 322 322 322 323 323 322 321 320 320 320 321 321 321 321 322 322 322 322 322 322 322 322 322 322 322 322 322 320 317 314 311 308 304 300 298 296 295 295 295
323 323 324 324 324 324 324 324 323 322 320 320 320 320 320 321 321 322 322 322 322 322 322 322 321 321 322 322 322 322 321 318 315 312 309 306 302 299 297 296 295 295
322 323 323 324 324 324 324 324 323 321 320 320 320 320 320 320 321 322 322 322 322 322 322 322 322 322 322 323 322 322 321 319 316 313 311 308 304 301 298 296 296 295
322 322 323 323 323 323 324 324 322 320 320 320 320 320 321 321 321 322 322 321 321 322 322 322 322 322 322 323 322 322 321 320 317 314 312 309 306 303 300 297 296 296
321 322 321 321 321 323 324 323 322 320 320 320 320 321 321 321 321 321 321 321 321 321 322 321 322 322 322 322 322 322 322 320 317 314 312 310 308 305 302 299 297 296
322 322 322 321 321 322 322 322 321 320 320 320 320 321 320 321 322 322 322 322 322 322 322 322 322 322 322 321 322 322 321 320 318 315 313 311 310 307 304 301 299 297
323 322 321 321 321 320 320 320 320 320 320 320 320 321 321 322 323 323 323 323 322 322 322 322 322 322 322 322 322 322 321 321 319 316 314 312 311 308 306 303 301 299
322 320 320 320 320 320 319 320 320 320 321 321 322 323 323 323 323 323 323 323 323 323 323 322 322 323 323 322 322 322 322 321 320 317 315 313 311 309 307 305 302 301
Wind_Speed
15 13 12 12 11 10 8 7 4 3 2 2 5 7 7 7 7 8 10 13 15 16 17 17 15 13 11 10 9 8 8 8 8 8 8 8 8 9 9 10 10 11
16 14 13 12 12 11 10 8 6 5 3 1 3 5 5 5 5 7 9 12 14 14 15 16 15 13 11 10 9 8 8 8 8 8 7 8 8 9 9 9 10 11
17 16 15 14 13 12 10 9 6 5 4 0 2 3 4 4 5 6 8 10 12 13 13 14 14 13 11 9 8 8 7 7 7 7 7 7 7 8 9 9 10 10
18 18 16 15 14 12 11 9 7 5 4 2 0 2 3 4 5 5 6 9 10 11 12 12 12 13 12 10 8 7 7 6 6 6 6 6 7 7 8 8 9 9
20 19 18 16 14 13 11 10 8 6 5 3 2 3 3 4 5 5 6 7 9 10 10 10 10 11 12 10 9 8 7 6 6 6 6 6 6 7 7 8 8 9
20 20 19 16 15 13 12 10 9 9 7 4 3 4 4 4 5 5 6 6 7 8 9 9 9 9 11 11 9 8 7 6 6 6 6 6 6 7 7 7 8 8
21 21 20 17 15 14 13 11 10 11 9 6 4 5 5 5 5 5 5 5 6 7 8 9 9 8 9 10 10 8 7 7 6 6 6 6 7 7 7 7 7 8
23 23 21 18 16 15 14 13 12 12 9 7 6 7 6 6 6 6 6 6 6 6 7 8 9 8 8 9 9 9 8 7 7 6 6 6 7 7 7 7 7 8
24 23 21 19 18 17 16 14 14 13 10 8 9 8 7 7 7 7 7 7 6 6 7 8 9 9 8 8 9 9 8 7 7 7 7 7 7 7 8 8 8 8
25 23 22 20 19 18 17 16 15 14 12 10 11 10 9 9 8 9 9 8 7 7 7 8 9 9 9 8 8 8 8 7 8 8 8 8 8 8 8 9 9 9
26 25 23 22 20 19 18 17 16 15 13 12 12 12 11 10 10 10 10 9 9 9 8 8 8 9 10 9 8 8 8 8 8 8 9 9 9 9 9 9 10 9
28 26 24 23 21 19 18 18 17 16 15 14 14 13 12 11 11 11 11 11 11 11 10 10 9 9 10 10 10 9 9 8 8 8 9 10 10 10 10 10 11 10
28 27 25 23 21 20 20 19 18 17 17 16 15 15 14 13 13 13 12 13 14 14 13 12 13 12 11 11 11 10 10 10 9 9 9 10 10 11 11 11 11 11
28 27 25 24 23 22 21 20 19 19 18 17 17 17 17 16 15 15 15 15 16 17 15 14 14 14 13 12 12 11 11 11 11 10 10 10 11 11 11 12 12 12
28 27 26 25 24 23 23 22 20 20 20 19 19 19 19 18 17 18 18 17 17 18 18 16 15 15 14 12 12 13 12 12 12 12 11 11 11 12 12 12 12 13
29 28 27 26 26 25 24 23 22 21 21 21 20 20 20 19 19 19 20 19 18 19 19 19 18 16 14 13 13 14 13 13 13 13 13 13 12 13 13 13 13 13
29 28 28 27 27 26 24 24 23 23 23 22 22 22 21 21 20 21 21 21 20 20 21 21 20 18 15 14 15 15 14 14 14 14 15 14 13 13 13 14 14 14
28 28 28 27 27 26 25 25 25 25 25 25 24 24 23 23 22 22 23 23 22 22 22 22 21 20 16 16 17 16 15 16 16 15 16 15 15 14 14 14 15 15
28 28 28 27 27 27 26 26 26 27 27 26 25 25 25 25 24 24 24 25 25 24 23 22 22 20 16 16 17 18 17 17 17 16 16 16 16 15 15 15 16 17
28 28 27 27 27 27 27 27 28 28 28 27 27 27 27 27 26 26 26 26 26 25 23 22 22 19 16 16 18 18 18 18 18 18 17 17 17 17 16 16 16 17
28 28 27 28 27 27 27 28 29 30 29 28 28 29 29 29 28 28 28 27 28 27 25 24 24 21 18 17 18 19 20 19 19 18 17 17 18 18 17 17 17 18
28 27 28 28 28 28 28 29 30 30 29 29 29 30 31 31 30 30 30 29 30 30 28 26 27 25 21 18 18 20 21 21 20 19 17 17 18 18 18 18 18 18
27 27 28 30 30 29 29 30 30 31 30 30 30 30 31 31 30 30 31 31 32 30 27 26 27 27 23 19 18 19 21 21 21 19 18 18 18 18 19 19 19 19
26 27 27 28 29 29 30 30 31 31 31 30 30 30 31 31 31 31 32 32 32 29 26 25 26 25 23 20 18 19 20 21 21 20 20 19 19 19 19 19 20 19
26 26 27 28 28 29 29 30 30 31 31 31 31 31 32 32 31 32 32 32 31 28 25 24 23 23 22 20 19 19 20 21 21 22 21 20 19 19 20 19 20 21
26 26 26 26 27 27 28 28 30 31 31 31 32 31 31 32 33 33 33 32 28 25 23 22 21 22 21 20 20 20 20 21 22 22 22 20 18 18 20 20 21 22
Wind_Direction
196 196 200 201 197 195 198 203 212 232 256 347 17 26 31 27 21 22 30 37 40 41 40 39 39 38 39 40 38 38 36 37 41 41 42 45 45 44 41 40 43 43
198 199 201 204 205 204 205 210 220 235 250 5 27 19 26 23 15 20 29 32 35 37 36 35 35 34 34 36 33 33 28 24 28 30 28 33 34 32 32 30 33 37
200 202 204 205 206 208 213 220 223 232 248 270 49 18 16 14 11 21 28 29 29 31 32 30 30 29 29 30 29 30 27 17 16 16 16 22 25 23 23 22 24 28
201 203 205 207 208 212 220 225 226 231 236 216 27 340 354 1 5 16 23 26 24 24 27 25 24 25 24 23 23 23 22 13 5 2 4 10 14 15 13 12 14 16
203 202 203 206 210 216 220 222 229 238 230 209 250 301 330 346 355 4 10 19 18 15 18 17 16 20 19 17 17 12 10 6 356 352 353 358 1 3 4 3 3 4
204 203 203 207 211 216 219 222 231 240 234 220 242 283 311 330 342 351 356 8 11 7 9 8 6 11 14 13 11 5 359 352 348 345 345 346 346 349 353 353 351 352
204 203 203 207 211 216 220 225 229 231 229 227 243 273 296 313 328 338 340 346 354 356 358 356 355 358 5 8 6 360 352 343 337 336 334 333 332 334 340 342 341 340
204 204 204 207 212 217 221 226 229 228 225 232 254 269 281 296 309 317 320 324 332 342 346 344 345 347 350 357 360 355 346 337 329 325 322 319 319 321 326 328 330 329
203 205 206 209 214 219 221 225 231 233 231 240 257 266 272 284 295 301 306 314 320 327 335 335 335 336 336 340 348 347 341 331 322 316 311 308 310 312 314 316 320 320
204 206 209 212 216 221 224 226 231 237 239 247 259 264 267 275 284 292 299 308 312 310 317 323 324 326 325 324 331 336 333 326 317 310 304 302 303 303 304 306 311 314
207 208 212 215 217 222 226 229 234 239 243 249 257 262 265 269 276 285 293 301 306 301 299 304 311 317 317 311 314 322 324 318 310 305 299 296 296 296 296 298 301 305
210 211 214 217 218 222 227 231 235 240 245 250 257 261 262 266 272 280 288 296 301 297 290 286 290 300 306 304 301 306 313 311 304 299 295 292 292 291 291 293 295 298
213 214 216 219 221 224 227 231 235 241 247 252 258 261 263 266 272 278 285 292 295 295 290 282 280 282 288 293 293 294 302 306 300 294 290 287 286 286 286 288 291 294
215 217 219 221 223 225 228 232 235 241 248 252 257 262 265 269 273 277 280 283 288 292 292 286 280 278 279 284 286 286 291 298 298 293 286 283 282 281 281 283 286 290
217 219 221 223 225 227 229 233 236 241 247 252 256 261 266 270 273 276 277 279 283 288 291 289 284 280 278 279 281 282 283 289 294 292 285 281 280 279 280 281 282 286
218 221 223 224 225 227 230 233 237 241 247 251 256 260 264 267 270 274 278 281 283 285 288 289 287 283 281 277 275 277 278 280 286 289 286 281 279 279 280 281 282 283
220 222 225 226 227 228 230 234 238 243 247 250 254 258 262 265 268 273 278 282 284 285 287 289 289 289 284 275 272 273 273 274 279 284 285 282 279 278 280 281 282 281
222 224 226 228 229 231 232 235 239 243 247 250 252 256 259 263 267 272 276 280 283 284 285 289 293 295 289 276 271 271 270 269 272 277 283 283 279 277 276 278 279 280
224 225 228 230 231 234 235 238 240 243 247 250 253 256 259 263 266 270 273 278 282 283 286 289 291 292 287 275 269 268 267 266 266 271 278 282 280 277 274 273 274 276
225 227 229 231 233 235 237 239 241 244 247 250 253 257 260 262 265 268 273 278 282 283 284 284 284 285 283 275 267 263 263 262 262 266 273 279 280 277 274 272 272 273
226 228 230 233 235 237 239 241 243 245 247 250 254 258 261 264 267 271 275 278 280 281 279 277 279 283 283 277 269 261 258 257 258 262 269 276 278 277 275 273 272 273
226 228 231 234 237 238 240 242 244 246 249 252 255 259 263 267 271 275 278 279 278 279 279 279 281 283 279 273 269 262 256 253 255 259 266 272 276 277 277 274 273 274
228 230 233 237 239 239 241 244 247 250 252 255 258 262 266 271 277 280 281 282 282 283 285 286 285 283 278 269 265 260 254 252 255 258 263 269 274 277 278 276 276 276
231 232 235 238 240 241 243 246 250 253 256 258 261 264 269 275 279 280 279 280 284 288 290 288 284 280 274 266 260 256 251 250 254 256 260 266 272 276 279 279 278 277
234 235 236 239 241 244 247 249 253 256 259 261 264 268 272 275 275 275 276 281 288 292 292 286 278 272 265 260 258 253 246 246 251 253 257 264 270 276 281 282 280 278
238 240 241 243 246 250 253 255 257 260 263 266 268 269 270 270 271 273 279 286 290 291 290 285 276 267 261 255 254 253 246 244 248 252 255 262 268 274 280 282 281 281